Regional Weather Roundup
Issued by NWS

Home | Current Version | Previous Version | Text Only | Print | Product List | Glossary Off
Versions: 1 2 3 4 5 6 7 8 9 10 11 12 13 14 15 16 17 18 19 20 21 22 23 24 25 26 27 28 29 30 31 32 33 34 35 36 37 38 39 40 41 42 43 44 45 46 47 48 49 50

148
ASUS44 KJAN 210303
RWRMS

MISSISSIPPI HOURLY WEATHER ROUNDUP
NATIONAL WEATHER SERVICE JACKSON MS
900 PM CST SAT DEC 20 2014

NOTE: "FAIR: INDICATES FEW OR NO CLOUDS BELOW 12,000 FEET WITH NO
SIGNIFICANT WEATHER AND/OR OBSTRUCTIONS TO VISIBILITY.

MSZ001>002-007>008-010>013-018>021-025>028-034>036-210400-
NORTHWEST MISSISSIPPI

CITY           SKY/WX    TMP DP  RH WIND       PRES   REMARKS
CLARKSDALE     FAIR      39  37  93 N7        30.25S WCI  34
CLEVELAND      FAIR      40  39  93 N7        30.23S
GREENWOOD      CLEAR     38  35  89 NE3       30.22R
GREENVILLE     CLEAR     41  38  89 N6        30.22S
GRENADA        FAIR      36  36 100 CALM      30.23S
OLIVE BRANCH   CLEAR     37  36  93 NE5       30.24S WCI  34
OXFORD         FAIR      34  32  93 CALM      30.24S
TUNICA         CLEAR     37  36  93 N5        30.26R WCI  34
$$

MSZ003>006-009-014>017-022>024-029>033-037>039-210400-
NORTHEAST MISSISSIPPI

CITY           SKY/WX    TMP DP  RH WIND       PRES   REMARKS
COLUMBUS AFB   CLEAR     38  36  94 CALM      30.21S
CORINTH        FAIR      39  30  70 CALM      30.24S
GOLDN TRIANGLE CLEAR     41  34  75 N6        30.20S
STARKVILLE     FAIR      37  36  93 CALM      30.21S
TUPELO         CLEAR     34  30  85 NE7       30.23S WCI  28
$$

MSZ040-058-210400-
CENTRAL MISSISSIPPI

CITY           SKY/WX    TMP DP  RH WIND       PRES   REMARKS
JACKSON INTL   PTCLDY    44  39  82 NE6       30.19R
JACKSON HAWKNS PTCLDY    45  39  79 CALM      30.19S
MERIDIAN KEY   MOCLDY    39  37  92 CALM      30.19S
MERIDIAN NAS   PTCLDY    40  38  93 CALM      30.20S
RAYMOND        FAIR      39  36  87 CALM      30.19S FOG
VICKSBURG      CLEAR     42  38  85 N7        30.20S
$$

MSZ059>079-210400-
SOUTH MISSISSIPPI

CITY           SKY/WX    TMP DP  RH WIND       PRES   REMARKS
HATTIESBURG    MOCLDY    50  45  83 N7        30.18R
MCCOMB         MOCLDY    47  43  86 CALM      30.17S
NATCHEZ        MOCLDY    46  39  76 CALM      30.18S
PINE BELT      CLOUDY    50  43  76 N7        30.18S
$$

MSZ080>082-210400-
COASTAL MISSISSIPPI

CITY           SKY/WX    TMP DP  RH WIND       PRES   REMARKS
BILOXI         CLOUDY    51  49  90 NE10      30.14R
PASCAGOULA     CLOUDY    51  47  86 NE10      30.14S
GULFPORT       CLOUDY    51  47  86 NE10      30.14R
$$



USA.gov is the U.S. government's official web portal to all federal, state and local government web resources and services.